Regional Weather Roundup
Issued by NWS Sterling, VA

Home | Current Version | Previous Version | Graphics & Text | Print | Product List | Glossary On
Versions: 1 2 3 4 5 6 7 8 9 10 11 12 13 14 15 16 17 18 19 20 21 22 23 24 25 26 27 28
000
ASUS41 KLWX 190110
RWRLWX

REGIONAL WEATHER ROUNDUP
NATIONAL WEATHER SERVICE BALTIMORE MD/WASHINGTON DC
800 PM EST WED JAN 18 2017

Note: "FAIR" indicates few or no clouds below 12,000 feet
with no significant weather and/or obstructions to visibility.
 TC=TEMPERATURE CELSIUS

 * =Non NWS site. Station does not report precipitation (e.g. rain,
    snow, etc.), thunder, or fog.

DCZ001-MDZ009-015-VAZ040>042-051-053>054-190200-
WASHINGTON METRO

CITY           SKY/WX    TMP DP  RH WIND       PRES   REMARKS
WASHINGTON NAT PTCLDY    49  36  61 NW13      30.09R
DULLES         PTCLDY    45  33  63 N7        30.09R
ANDREWS AFB    CLOUDY    47  35  63 NW13      30.06R
FT BELVOIR     CLEAR     48  34  58 NW12      30.08R
QUANTICO       CLEAR     49  37  63 NE10G23   30.09R
COLLEGE PARK*  CLOUDY    46  34  61 NW8       30.08R
LEESBURG*      PTCLDY    45  37  76 N6        30.10R
MANASSAS*      CLEAR    N/A N/A N/A N6        30.10R
GAITHERSBURG*  CLOUDY    45  32  61 NW9       30.12R

$$

MDZ006>007-011-014-190200-
BALTIMORE METRO

CITY           SKY/WX    TMP DP  RH WIND       PRES   REMARKS
BWI AIRPORT    MOCLDY    49  37  63 W13       30.06R
MD SCIENCE CTR   N/A     51  35  54 MISG      30.06R
MARTIN STATE   CLOUDY   N/A N/A N/A NW3         N/A
ANNAPOLIS      CLOUDY    51  37  58 NW9       30.06R
FORT MEADE*    CLOUDY    46  36  66 NW8       30.10R

$$

MDZ012-015-019>023-190200-
MARYLAND EASTERN SHORE

CITY           SKY/WX    TMP DP  RH WIND       PRES   REMARKS
OCEAN CITY     CLOUDY    48  43  82 N7        30.04R
SALISBURY      CLOUDY    51  41  68 N8        30.04R
BAY BRIDGE AP* CLOUDY    46  37  71 NW9       30.05S
CAMBRIDGE*     CLOUDY    50  41  71 N3        30.04S
EASTON*        CLOUDY    50  41  71 CALM      30.08S

$$

MDZ017>025-190200-
SOUTHERN MARYLAND

CITY           SKY/WX    TMP DP  RH WIND       PRES   REMARKS
PATUXENT RIVER MOCLDY    51  39  63 N9        30.04R
ST INIGOES     CLOUDY    53  38  56 VRB3      30.04R
LEONARDTOWN*   PTCLDY    50  36  57 NW5       30.07R

$$

MDZ003>005-190200-
NORTH CENTRAL MARYLAND

CITY           SKY/WX    TMP DP  RH WIND       PRES   REMARKS
FREDERICK*     NOT AVBL
HAGERSTOWN APT CLOUDY    44  34  67 W8        30.08R
WESTMINSTER*   CLOUDY    43  36  75 W10       30.06R

$$

MDZ501>502-190200-
WESTERN MARYLAND

CITY           SKY/WX    TMP DP  RH WIND       PRES   REMARKS
OAKLAND*       FOG       32  32 100 W9        30.05S VSB 1/2 WCI  24
CUMBERLAND*    CLOUDY    45  34  65 W5        30.13F

$$

VAZ025>031-190200-
SHENANDOAH VALLEY

CITY           SKY/WX    TMP DP  RH WIND       PRES   REMARKS
WINCHESTER*    CLOUDY    43  34  70 NW6       30.09S
FRONT ROYAL*   CLEAR     43  34  70 NE3       30.08R
LURAY*         CLEAR     43  36  75 NE6       30.06S
NEW MARKET*    CLEAR     37  32  82 CALM      30.06R
STAUNTON*      CLEAR     40  32  73 N5        30.08R
WAYNESBORO*    CLEAR     46  33  61 SW3       30.06R

$$

WVZ021-048>050-054>055-190200-
EASTERN WEST VIRGINIA PANHANDLE

CITY           SKY/WX    TMP DP  RH WIND       PRES   REMARKS
MARTINSBURG    CLOUDY    45  34  65 W6        30.10R
PETERSBURG*    CLEAR     39  35  84 CALM      30.09S

$$

VAZ036>039-050-190200-
CENTRAL FOOTHILLS

CITY           SKY/WX    TMP DP  RH WIND       PRES   REMARKS
CHARLOTTESVILL CLEAR     50  35  56 N6        30.05R
CULPEPER*      CLEAR     45  36  71 N6        30.09R
ORANGE*          N/A     46  36  66 N5        30.08R
GORDONSVILLE*  CLEAR     43  37  80 NE3       30.05R
WARRENTON*     CLEAR     47  33  58 N13       30.07R

$$

VAZ055>057-190200-
NORTH AND CENTRAL PIEDMONT

CITY           SKY/WX    TMP DP  RH WIND       PRES   REMARKS
FREDERICKSBRG* CLEAR     50  38  64 N7        30.06R
STAFFORD*      CLEAR     47  36  65 N9        30.11R

$$

NCZ024-NYZ072-PAZ021-071-VAZ022-071-190200-
OTHER REGIONAL OBSERVATIONS

CITY           SKY/WX    TMP DP  RH WIND       PRES   REMARKS
NEW YORK CITY  CLOUDY    40  36  86 NE3       30.05F
PHILADELPHIA   CLOUDY    46  39  76 N9        30.04F
PITTSBURGH     DRIZZLE   39  36  89 SW7       30.09S
ROANOKE        CLEAR     46  36  68 W8        30.10S
RICHMOND       CLEAR     50  38  63 NE8       30.04R
RALEIGH        PTCLDY    53  35  50 NE3       30.04R

$$

ANZ530>537-190200-
MARINE OBSERVATIONS

STATION/POSITION TIME  TEMP    WIND        PRES
                       AIR SEA DIR/SP/G
                 (UTC) (F)     (DEG/KT/KT) (MB)
THOMAS PT LIGHT  0100   51 39  320/ 11/ 13   N/A
BALT KEY BRIDGE  0036   48     300/ 11/ 12 1017.6R
COVE POINT       0036   45     350/  7/ 11 1017.8S
LEWISETTA        0036   51 42  350/  8/ 10 1016.9R
SOLOMONS ISLAND  0036   52 42  340/  7/  9   N/A
PINEY POINT      0036           10/  9/ 10   N/A

$$





USA.gov is the U.S. government's official web portal to all federal, state and local government web resources and services.